Regional Weather Roundup
Issued by NWS

Home | Current Version | Previous Version | Text Only | Print | Product List | Glossary Off
Versions: 1 2 3 4 5 6 7 8 9 10 11 12 13 14 15 16 17 18 19 20 21 22 23 24 25 26 27 28 29 30 31 32 33 34 35 36 37 38 39 40 41 42 43 44 45 46 47 48 49 50

683
ASUS44 KLIX 282005
RWRLA
LOUISIANA WEATHER ROUNDUP
NATIONAL WEATHER SERVICE NEW ORLEANS LA
300 PM CDT MON JUL 28 2014

NOTE: "FAIR" INDICATES FEW OR NO CLOUDS BELOW 12,000 FEET WITH NO
      SIGNIFICANT WEATHER AND/OR OBSTRUCTIONS TO VISIBILITY.
      SKY/WX - SKY CONDITION AND SIGNIFICANT WEATHER.
      TMP - AIR TEMPERATURE.    DP   - DEWPOINT TEMPERATURE.
      RH  - RELATIVE HUMIDITY.  PRES - PRESSURE.
      HX  - HEAT INDEX.         WCI  - WIND CHILL INDEX.

*  THESE STATIONS ARE NOT NWS OR FAA STATIONS AND ARE NOT UNDER
   NWS QUALITY CONTROL.

LAZ040-048-061>063-065-066-069-282100-
SOUTHEAST LOUISIANA

CITY           SKY/WX    TMP DP  RH WIND       PRES   REMARKS
N.O. AUDUBON     N/A     96  75  51 MISG        N/A  HX 108
N.O. INTL ARPT PTSUNNY   92  74  55 W14       30.02F HX 101
N.O. LAKEFRONT MOSUNNY   91  77  63 NW14      30.03F HX 104
N.O. DOWNTOWN* CLOUDY    95  72  46 W7        30.03F HX 103
SLIDELL        TSTM      81  75  82 SW6       30.03R
BATON ROUGE    PTSUNNY   92  77  61 W13       30.04F HX 105
BOOTHVILLE     SUNNY     89  76  65 W13       30.05F HX 100
BELLE CHASSE   PTSUNNY   93  72  50 W8        30.02F HX 101
BOGALUSA*      FAIR      92  75  56 W8        30.03F HX 103
GALLIANO*      NOT AVBL
NEW ROADS*     FAIR      91  77  62 W8        30.04F HX 104
GONZALES*      FAIR      89  78  71 NW6       30.04S HX 103
HAMMOND*       PTSUNNY   95  72  46 NW12      30.04F HX 103
HOUMA*         MOSUNNY   93  72  49 W6        30.04F HX 100
PORT FOURCHON* NOT AVBL

$$

LAZ041-044-053-054-282100-
SOUTHWEST LOUISIANA

CITY           SKY/WX    TMP DP  RH WIND       PRES   REMARKS
LAKE CHARLES   MOSUNNY   93  74  53 W8        30.06F HX 103
LAFAYETTE      NOT AVBL
PATTERSON      PTSUNNY   91  75  59 W10G16    30.09F HX 102
SALT POINT       N/A     93  76  57 VRB7      30.06F HX 105
NEW IBERIA     PTSUNNY   92  76  59 W8        30.06F HX 104
CHENAULT AIRPK MOSUNNY   93  72  49 W6        30.07F HX 100

$$

LAZ027-028-282100-
CENTRAL LOUISIANA

CITY           SKY/WX    TMP DP  RH WIND       PRES   REMARKS
FORT POLK      MOSUNNY   92  72  51 NW9       30.06F HX  99
ALEXANDRIA INT MOSUNNY   95  71  45 NW8       30.02F HX 102
ALEXANDRIA     MOSUNNY   95  76  53 W9        30.03F HX 108

$$

LAZ001-002-282100-
NORTHWEST LOUISIANA

CITY           SKY/WX    TMP DP  RH WIND       PRES   REMARKS
SHREVEPORT     PTSUNNY   92  73  53 NW8       30.05F HX 100
BARKSDALE AFB  PTSUNNY   91  72  54 VRB7      30.06F HX  98
DTN SHREVEPORT PTSUNNY   91  71  51 N6        30.06F HX  97

$$

LAZ014-016-282100-
NORTHEAST LOUISIANA

CITY           SKY/WX    TMP DP  RH WIND       PRES   REMARKS
MONROE         PTSUNNY   92  70  48 N7        30.05F HX  97
TALLULAH       SUNNY     91  68  46 N6        30.03F HX  95

$$




USA.gov is the U.S. government's official web portal to all federal, state and local government web resources and services.